Skip Page Navigation
NASA JPL Caltech
NASA Logo - Jet Propulsion Laboratory + View the NASA Portal
+ Center for Near-Earth Object Studies
JPL Home Earth Solar System Stars & Galaxies Technology
JPL Solar System Dynamics
BODIES ORBITS EPHEMERIDES TOOLS PHYSICAL DATA DISCOVERY FAQ SITE MAP

Significant website upgrade scheduled for September 27. More details available here.

JPL Small-Body Database Browser
Search: [ help ]  
3443 Leetsungdao (1979 SB1)
Classification: Mars-crossing Asteroid          SPK-ID: 2003443
Ephemeris | Orbit Diagram | Orbital Elements | Mission Design | Physical Parameters | Discovery Circumstances ]

[ show orbit diagram ]
Orbital Elements at Epoch 2459396.5 (2021-Jul-01.0) TDB
Reference: JPL 32 (heliocentric ecliptic J2000)
 Element Value Uncertainty (1-sigma)   Units 
e .3063461075235021 2.3884e-08  
a 2.393143179570596 6.1785e-09 au
q 1.660013081762726 5.6639e-08 au
i 12.7088379319402 3.9269e-06 deg
node 184.5745715075387 1.3221e-05 deg
peri 112.4242777385021 1.4994e-05 deg
M 143.1468417261973 8.1661e-06 deg
tp 2458858.811533492099
(2020-Jan-10.31153349)
2.9354e-05 TDB
period 1352.23275350419
3.70
5.2367e-06
1.434e-08
d
yr
n .266226357161585 1.031e-09 deg/d
Q 3.126273277378465 8.0713e-09 au
  Orbit Determination Parameters
   # obs. used (total)      2550  
   data-arc span      30259 days (82.84 yr)  
   first obs. used      1938-06-03  
   last obs. used      2021-04-07  
   planetary ephem.      DE441  
   SB-pert. ephem.      SB441-N16  
   condition code      0  
   norm. resid. RMS      .40171  
   source      ORB  
   producer      Otto Matic  
   solution date      2021-Jul-08 14:01:41  

Additional Information
 Earth MOID = .693941 au 
 Jupiter MOID = 2.28052 au 
 T_jup = 3.434 
[ show covariance matrix ]

Ephemeris | Orbit Diagram | Orbital Elements | Mission Design | Physical Parameters | Discovery Circumstances ]

Physical Parameter Table
Parameter Symbol Value Units Sigma Reference Notes
absolute magnitude H 13.19   n/a MPCxxxxx  
diameter diameter 8.852 km 2.033 urn:nasa:pds:neowise_diameters_albedos::2.0[mainbelt] (http://adsabs.harvard.edu/abs/2016AJ....152...63N)  
rotation period rot_per 3.439 h n/a LCDB (Rev. 2020-October); Warner et al., 2009 Published Reference List:
[Behrend, R. (2001) Observatoire de Geneve web site, http://obswww.unige.ch/~behrend/page_cou.html]
[Ivanova, V.G.; Apostolovska, G.; Borisov, G.B.; Bilkina, B.I. (2002) Proc. ACM 2002, ESA SP 500, 505-508.]
[Stephens, R.D. (2002) Minor Planet Bull. 29, 2-3.]
[Ferrero, A. (2013) Minor Planet Bull. 40, 31-32.]
[Warner, B.D. (2017) Minor Planet Bull. 44, 12-19.]
geometric albedo albedo 0.132   0.092 urn:nasa:pds:neowise_diameters_albedos::2.0[mainbelt] (http://adsabs.harvard.edu/abs/2016AJ....152...63N)  
SMASSII spectral type spec_B T   n/a EAR-A-5-DDR-TAXONOMY-V4.0 based on a high-resolution spectrum by Xu et al. (1995) or Bus and Binzel (2002)

3443 Leetsungdao           Discovered 1979 Sept. 26 at the Purple Mountain Observatory.
Named in honor of the theoretical physicist Tsung-Dao Lee (b. 1926), professor at Columbia University, winner of the Nobel prize in physics in 1957. Among his outstanding works is the discovery of parity and other symmetry violations in weak interactions. From the late 1940s onward, he made many other landmark contributions to weak interactions. In the 1970s and 1980s Lee established the field of nontopological solitons and discovered a large class of new astronomical solutions of general relativity, called soliton stars.
NOTE: some special characters may not display properly (any characters within {} are an attempt to place the proper accent above a character)
Reference: 19960828/MPCPages.arcLast Updated: 2003-09-26

Alternate Designations
 1979 SB1 = 1938 LA = 1968 UP2 = 1971 FT = 1975 JJ = 1978 EH7 = 1986 JB 
Ephemeris | Orbit Diagram | Orbital Elements | Mission Design | Physical Parameters | Discovery Circumstances ]
ABOUT SSD CREDITS/AWARDS PRIVACY/COPYRIGHT GLOSSARY LINKS
FirstGov 2021-Sep-21 09:48 UT
(server date/time)  
NASA Home Page
Site Manager:   Ryan S. Park
Webmaster  Alan B. Chamberlin